CZ-6A DEB

Satellite information

Favourite Embed

Satellite Type and Status

DEBRISIN ORBIT

Key statistics

Satellite CZ-6A DEB at a glance.

Uptime

1029

Days in orbit

Revolutions

≈ 14.5

Per day

Orbit

SSO

Sun Synchronous Orbit

Inclination

98.6

Latest

Satellite identification and parameters

Extended collection of information and parameters for CZ-6A DEB.

Object identification

Identified? True

Debris? True

Object name: CZ-6A DEB

International designator: 2022-151LZ

Object number (NORAD): 54573

Object ID (CCSDS): 54573

Country: PEOPLES REPUBLIC OF CHINA (PRC)

Current information (Y/N): Y

RCS size: SMALL

Orbital parameters

Period: 99.252 minutes

Inclination: 98.6402 deg

SMA: 7101.009 km

Apoapsis: 792.989 km

Periapsis: 652.758 km

RAAN: 288.164 deg

Eccentricy: 0.00987405

Argument of periapsis: 95.472 deg

Mean anomaly: 265.7746 deg

Mean motion: 14.50850609 rev/day

Mean motion (dot): 0.00007206 rev/day2

B* drag term: 0.0017266842 1/REarth

Two-line elements (TLE)

Creation date: Sept. 4, 2025, 10:13 a.m.

Reference frame: TEME

Reference center: EARTH

Epoch: Sept. 4, 2025, 1:28 a.m. UTC

TLE line 0: 0 CZ-6A DEB

TLE line 1: 1 54573U 22151LZ 25247.06172961 .00007206 00000-0 17267-2 0 9997

TLE line 2: 2 54573 98.6402 288.1640 0098740 95.4720 265.7746 14.50850609147499

Live tracking on map

Real-time ground track for satellite CZ-6A DEB.

In-orbit conjunctions

A list of the most updated potential collisions computed for object CZ-6A DEB.

Target Orbit TCA Probability of collision Miss distance Type
SL-8 R/B LEO 2025-05-04 12:33:10 0.0001032295 299.0 (m) ROCKET BODY
COSMOS 2208 LEO 2024-12-18 10:38:02 0.0001979014 740.0 (m) PAYLOAD

Associated space launch

Chinese satellite reported for atmospheric/ocean/environmental/spatial parameter research purposes, details TBD.

CZ-6A DEB was lifted into orbit during the mission ‘Long March 6A | Yunhai 3’, on board a Long March 6A space rocket.

The launch took place on Nov. 11, 2022, 10:52 p.m. from Launch Complex 9A.

For more information about the launch, click the button.

Launch to space Long March 6A | Yunhai 3
Long March 6A | Yunhai 3

Agency: N/A

Status: Launch Successful

Launch date: Nov. 11, 2022, 10:52 p.m. UTC

Rocket: Long March 6A

Launch pad: Launch Complex 9A

Location: Taiyuan Satellite Launch Center, People's Republic of China

...

Latest news about this satellite

There are no fresh news available about this satellite. Check back as we update our databases every day.


Newsletter sign-up

Weekly statistics, charts and insights to help you stay on top of the space industry.